Wind_Speed
88 85 76 85 89 86 87 87 83 78 82 88 78 77 77 78 66 64 64 71 69 68 70 65 64 65 66 66 65 69 69 69 67 68 69 74 76 73 67 62 42 31 27 28
92 84 79 87 88 83 76 78 73 75 75 82 74 73 75 79 60 70 75 73 68 70 69 65 62 62 64 65 64 67 67 62 66 72 75 74 73 68 62 46 32 27 27 32
92 80 83 84 78 77 70 65 66 67 72 71 69 68 75 79 77 61 74 74 71 69 67 65 65 66 66 66 68 67 65 66 70 78 74 71 68 65 47 35 25 25 30 33
86 79 80 79 68 70 61 59 61 62 66 62 67 67 78 80 75 71 68 67 61 65 65 66 63 63 62 60 62 62 65 72 71 77 69 70 66 53 34 29 26 28 33 34
72 74 74 70 62 60 51 57 55 59 61 60 62 64 73 79 76 74 64 65 61 58 58 58 55 57 57 59 62 62 66 75 71 74 67 71 54 39 31 29 30 32 34 34
66 67 66 62 56 51 49 50 52 53 56 51 59 62 71 75 73 76 60 63 62 55 54 59 60 58 58 60 58 63 75 76 71 71 72 66 53 34 32 32 31 33 33 31
59 62 63 57 50 48 46 47 45 48 46 45 56 64 66 65 72 67 67 57 55 53 58 60 64 56 61 63 66 67 72 71 70 78 73 57 41 35 34 31 33 34 33 33
55 53 54 50 47 47 49 45 43 41 41 44 53 59 63 69 66 70 67 64 55 57 63 62 62 63 66 63 63 70 72 77 75 73 63 41 35 38 36 33 31 32 33 33
49 48 43 43 41 41 43 39 41 43 39 44 49 56 63 65 67 66 70 57 53 56 67 63 67 63 70 64 69 70 73 76 74 64 38 36 38 38 35 34 31 33 32 32
40 35 37 40 34 38 40 47 43 39 43 47 50 56 64 63 65 68 70 73 66 66 70 78 72 69 70 74 76 75 68 67 61 38 35 36 40 33 31 31 27 35 34 32
33 34 35 35 30 34 38 44 38 41 44 48 56 55 59 56 73 68 68 62 68 65 65 69 72 72 72 77 70 65 60 56 38 34 36 41 36 32 31 27 32 37 35 33
30 30 29 33 35 37 41 44 43 44 45 49 59 58 65 71 68 73 68 68 76 75 67 71 71 71 70 71 63 62 59 42 35 39 43 40 35 32 31 27 35 34 35 32
23 25 27 29 30 33 36 41 44 45 44 48 64 61 69 72 80 72 70 70 71 71 67 66 66 62 65 62 62 59 47 36 37 45 43 38 34 32 30 26 38 37 39 36
24 30 30 30 36 39 45 48 49 51 49 55 62 72 81 77 77 75 75 72 73 69 64 68 69 64 69 65 51 50 39 36 46 47 45 37 31 30 31 32 38 42 40 39
29 34 35 34 40 44 55 57 57 59 57 60 64 71 65 64 63 68 71 71 69 69 69 68 73 69 61 45 44 39 38 46 53 48 45 38 31 27 28 27 40 49 45 43
31 37 40 45 47 54 62 70 69 66 57 55 65 60 53 61 68 65 65 67 68 63 52 48 49 46 45 43 40 37 42 57 54 52 46 41 35 31 27 25 44 45 47 41
31 35 39 45 50 55 62 67 64 59 59 59 56 50 52 48 53 50 54 50 41 45 49 52 50 48 45 40 41 41 53 60 57 54 50 45 38 35 31 29 35 47 47 48
30 32 42 41 39 51 55 57 62 65 64 62 60 57 58 61 58 56 50 49 51 51 50 47 46 47 40 40 41 46 60 59 58 57 52 47 42 40 37 34 34 38 40 50
27 27 33 36 40 43 48 53 60 60 61 59 60 60 63 62 57 52 54 54 52 49 47 45 46 39 37 41 44 54 62 61 58 57 53 50 48 45 43 39 37 38 38 37
29 32 35 37 39 45 50 52 60 60 58 56 56 55 51 48 48 50 52 46 43 41 45 43 37 35 38 42 48 55 59 60 57 55 53 52 51 50 49 46 44 44 43 43
28 28 31 36 39 43 47 51 59 57 57 57 53 51 51 50 47 41 41 41 41 40 40 35 30 35 38 46 50 52 57 55 54 53 54 55 56 55 54 52 50 50 49 49
26 28 30 35 39 42 45 49 52 56 60 59 56 54 51 45 41 38 40 41 40 42 38 33 32 40 45 40 34 39 42 41 52 56 52 53 56 59 59 57 56 56 56 55
29 26 28 36 38 40 44 46 49 53 58 62 59 56 52 45 41 39 42 45 48 42 41 35 42 45 51 54 47 41 57 59 57 46 54 54 57 61 64 62 62 61 61 60
28 28 32 35 39 41 44 49 49 49 52 57 59 59 55 50 46 45 46 50 48 46 46 42 53 53 61 64 56 54 50 50 58 58 59 57 51 52 55 62 64 53 66 66
25 26 31 32 36 40 42 39 41 43 45 49 53 56 57 56 51 51 51 52 50 50 49 50 62 65 61 55 68 61 58 70 69 69 70 63 54 56 62 62 59 65 68 67
24 26 28 31 35 36 32 35 35 39 42 42 45 51 55 57 55 56 56 56 54 53 55 52 68 69 67 60 66 74 74 69 65 64 69 70 72 66 64 63 68 77 68 68
Wind_Direction
291 287 288 278 272 271 268 266 265 260 253 251 249 241 236 236 241 240 243 247 242 243 248 250 256 255 258 263 268 270 273 276 277 279 282 289 294 296 291 293 282 264 236 215
289 287 280 272 274 272 267 266 264 257 251 247 242 237 231 233 237 233 235 242 242 242 245 250 254 256 260 262 264 266 269 270 276 280 285 291 294 295 293 284 265 240 219 217
286 288 278 276 274 273 269 265 258 253 248 245 241 234 230 229 228 229 234 239 240 242 245 249 252 254 259 259 262 264 266 271 277 281 289 291 296 297 286 266 243 225 225 227
287 284 278 277 274 270 267 260 254 250 245 241 238 230 227 229 228 227 232 239 241 246 248 251 253 255 259 258 256 262 271 273 277 283 287 293 300 289 266 243 239 234 232 241
283 278 274 274 272 264 263 255 251 246 241 237 236 228 227 230 228 225 226 232 239 244 249 250 249 248 249 250 257 266 268 275 278 283 289 296 293 274 242 235 240 246 242 245
280 275 273 270 266 262 254 252 247 243 238 232 230 227 226 231 227 226 224 230 232 233 237 241 248 251 252 258 259 263 269 275 278 281 291 294 286 247 235 237 246 246 244 231
275 271 267 265 262 255 251 246 244 238 235 223 223 225 221 228 228 222 221 229 234 241 244 246 249 256 255 257 261 264 266 274 279 287 290 289 264 232 235 244 248 253 240 212
275 267 262 259 254 247 242 237 232 228 224 218 221 222 218 223 228 229 224 232 232 237 242 244 245 244 250 258 264 265 272 279 282 286 287 268 236 231 236 246 253 247 215 211
271 260 258 254 247 242 235 230 226 220 214 215 219 218 221 224 231 231 226 224 227 242 239 242 247 253 258 265 264 270 275 278 282 284 268 240 226 231 239 250 260 216 206 210
271 259 249 246 234 231 224 218 220 215 208 205 211 214 215 222 228 230 230 228 229 244 242 244 249 254 259 263 269 272 279 279 280 271 243 223 224 231 240 249 235 204 212 215
263 246 236 238 228 220 218 214 213 211 209 203 210 209 214 225 225 228 230 232 228 232 242 251 252 255 259 263 270 276 278 276 274 242 219 219 223 231 238 248 213 210 207 216
251 238 230 227 217 211 209 208 204 206 208 201 207 205 216 219 228 226 227 225 230 237 246 252 254 257 262 269 273 275 277 269 246 220 214 216 220 229 236 241 210 208 211 217
237 226 218 216 206 209 207 206 206 206 206 198 203 209 218 225 223 230 227 231 232 239 246 249 254 257 266 269 273 274 266 254 222 211 208 213 219 228 235 243 213 211 202 215
216 206 200 205 198 195 198 203 205 209 204 200 203 213 218 224 225 227 234 236 239 244 246 253 260 259 264 269 266 260 257 232 202 205 209 210 215 230 234 239 222 213 214 213
213 204 195 188 192 193 193 200 204 210 209 206 207 219 219 228 235 236 237 241 244 246 250 252 257 263 261 262 252 252 236 206 200 205 207 208 210 224 237 246 210 210 215 219
215 215 210 191 194 192 194 200 206 211 216 211 208 216 222 225 229 231 235 239 245 250 250 249 259 257 257 252 248 239 219 199 202 206 206 207 208 214 223 223 211 206 212 222
215 217 212 206 210 196 200 206 211 214 214 215 217 215 219 220 225 228 233 245 239 237 239 246 253 253 250 244 238 227 206 199 205 207 208 208 208 214 215 217 217 215 216 218
222 222 214 218 213 207 209 210 211 212 216 217 219 217 216 222 229 236 242 237 238 245 250 252 251 249 243 234 225 216 201 201 209 210 209 210 210 218 217 218 219 222 224 225
221 225 229 226 214 209 211 212 214 216 220 222 225 226 228 233 240 238 236 240 246 250 249 245 247 242 234 219 213 207 201 205 211 214 213 214 216 221 224 222 225 226 226 229
210 213 215 215 215 211 209 211 213 217 219 222 225 229 232 235 236 238 244 246 244 234 236 239 237 228 214 210 205 206 204 209 214 217 217 219 224 226 228 229 230 230 230 231
210 212 210 213 215 213 214 214 215 214 215 221 222 226 229 234 238 239 239 230 226 224 230 232 224 214 208 203 205 206 207 213 218 224 225 226 228 231 234 234 235 237 238 241
207 211 209 210 215 214 216 217 217 216 216 218 220 225 229 232 231 230 223 220 220 224 226 223 214 201 198 193 192 209 201 216 233 227 232 236 240 240 239 242 242 243 243 245
209 202 208 210 215 214 214 217 218 218 218 219 220 222 227 229 225 222 221 217 224 225 222 218 203 194 191 184 194 190 207 208 222 224 239 245 246 245 244 245 246 248 248 250
215 205 196 205 210 214 216 218 219 217 219 222 222 222 225 226 223 220 220 222 227 223 223 214 196 197 195 196 200 202 204 220 222 217 222 230 243 247 246 248 250 252 255 256
220 216 211 214 218 220 223 222 222 221 221 222 224 225 224 227 224 221 221 222 225 223 223 210 201 203 205 206 209 211 209 210 221 223 227 230 243 236 246 253 248 252 255 256
222 220 220 221 225 229 226 227 224 224 222 224 226 227 228 229 227 225 224 225 225 224 223 216 208 203 206 204 209 210 218 218 219 218 226 229 228 232 244 244 239 251 256 256
Height
10469 10470 10479 10459 10453 10461 10459 10459 10468 10479 10475 10469 10491 10511 10525 10534 10547 10559 10566 10569 10578 10586 10592 10600 10609 10615 10617 10621 10623 10624 10627 10625 10621 10621 10622 10623 10617 10613 10607 10602 10599 10599 10601 10606
10439 10444 10448 10431 10428 10434 10439 10438 10450 10448 10452 10448 10472 10490 10507 10521 10533 10541 10547 10554 10566 10573 10579 10588 10596 10602 10605 10609 10611 10612 10614 10616 10610 10610 10611 10611 10605 10600 10596 10591 10591 10592 10595 10600
10407 10423 10409 10407 10410 10409 10415 10421 10422 10427 10428 10438 10457 10476 10494 10499 10507 10523 10532 10538 10550 10559 10567 10577 10584 10589 10593 10597 10597 10598 10598 10604 10602 10596 10601 10597 10593 10588 10584 10583 10584 10587 10591 10594
10389 10390 10382 10381 10392 10387 10397 10397 10401 10408 10413 10430 10437 10462 10470 10482 10497 10509 10518 10527 10536 10548 10558 10564 10570 10576 10580 10583 10583 10584 10585 10586 10593 10586 10589 10585 10583 10578 10576 10577 10578 10582 10584 10587
10376 10364 10361 10365 10371 10369 10382 10376 10386 10390 10401 10413 10429 10446 10463 10469 10481 10493 10506 10520 10530 10537 10547 10553 10559 10562 10566 10569 10571 10575 10571 10573 10580 10574 10577 10574 10572 10569 10569 10570 10572 10574 10577 10579
10347 10342 10344 10348 10353 10357 10361 10365 10371 10379 10389 10408 10418 10433 10449 10455 10470 10476 10503 10503 10514 10528 10537 10541 10544 10547 10552 10554 10558 10565 10558 10563 10565 10561 10563 10563 10559 10560 10562 10564 10566 10569 10570 10572
10327 10326 10324 10331 10337 10342 10348 10355 10363 10370 10385 10402 10407 10417 10439 10442 10452 10474 10480 10490 10506 10519 10524 10526 10530 10536 10538 10540 10544 10551 10545 10550 10552 10546 10547 10550 10548 10552 10556 10556 10559 10561 10563 10567
10306 10308 10308 10314 10321 10327 10334 10343 10351 10364 10376 10388 10395 10414 10426 10431 10448 10457 10475 10481 10497 10510 10508 10516 10518 10519 10523 10529 10534 10529 10535 10537 10537 10534 10535 10536 10540 10543 10548 10549 10552 10553 10557 10562
10287 10289 10295 10299 10306 10315 10323 10338 10343 10352 10368 10381 10392 10404 10417 10429 10439 10448 10459 10474 10487 10492 10495 10501 10503 10509 10513 10521 10516 10522 10524 10522 10524 10523 10524 10527 10532 10536 10540 10541 10544 10546 10552 10557
10271 10278 10283 10283 10296 10304 10315 10319 10332 10348 10359 10373 10386 10399 10409 10421 10428 10434 10448 10461 10475 10476 10482 10488 10494 10500 10503 10502 10506 10509 10511 10509 10509 10511 10513 10520 10525 10529 10532 10535 10536 10542 10547 10552
10261 10264 10269 10275 10292 10296 10305 10314 10329 10340 10352 10368 10379 10397 10406 10404 10410 10425 10435 10449 10458 10464 10470 10474 10483 10489 10493 10490 10495 10497 10496 10496 10498 10501 10507 10514 10518 10523 10526 10529 10532 10538 10543 10548
10250 10255 10262 10268 10278 10286 10295 10305 10317 10331 10345 10363 10374 10388 10383 10394 10398 10403 10426 10437 10445 10454 10459 10462 10468 10474 10478 10478 10482 10483 10483 10485 10489 10494 10501 10507 10513 10516 10520 10523 10528 10534 10540 10544
10245 10250 10256 10264 10275 10285 10295 10303 10312 10325 10339 10351 10364 10375 10370 10374 10384 10398 10417 10422 10433 10443 10448 10449 10455 10460 10463 10465 10469 10469 10471 10474 10480 10486 10495 10501 10507 10511 10514 10518 10523 10529 10536 10539
10234 10238 10248 10260 10265 10271 10285 10298 10308 10319 10330 10342 10351 10345 10345 10362 10378 10391 10400 10414 10424 10430 10437 10438 10442 10447 10450 10452 10455 10456 10460 10465 10474 10479 10488 10495 10501 10505 10508 10512 10517 10523 10529 10534
10229 10232 10242 10254 10262 10268 10281 10291 10301 10307 10317 10329 10338 10334 10363 10371 10381 10385 10395 10403 10412 10417 10425 10427 10429 10434 10435 10437 10441 10445 10450 10458 10465 10473 10481 10489 10495 10499 10501 10503 10508 10516 10521 10527
10223 10227 10235 10244 10255 10261 10271 10277 10281 10293 10308 10325 10332 10347 10363 10366 10363 10374 10383 10391 10399 10405 10410 10413 10415 10417 10421 10425 10428 10435 10441 10450 10457 10464 10473 10482 10488 10493 10496 10498 10502 10508 10514 10520
10218 10223 10233 10238 10243 10256 10263 10270 10283 10301 10308 10316 10327 10339 10343 10353 10354 10366 10372 10379 10387 10393 10398 10401 10403 10404 10408 10413 10418 10425 10433 10441 10448 10456 10465 10474 10481 10488 10491 10494 10497 10502 10507 10512
10215 10221 10227 10233 10243 10251 10258 10268 10278 10287 10297 10308 10318 10329 10338 10340 10349 10356 10362 10370 10377 10381 10385 10388 10391 10392 10397 10402 10408 10415 10424 10434 10441 10447 10458 10467 10474 10479 10483 10487 10492 10496 10500 10505
10214 10220 10226 10232 10240 10249 10259 10267 10274 10284 10293 10302 10310 10320 10328 10332 10340 10347 10354 10360 10364 10369 10372 10374 10377 10381 10387 10393 10400 10408 10417 10426 10434 10442 10453 10460 10466 10470 10475 10479 10484 10489 10493 10496
10209 10215 10222 10229 10236 10244 10251 10260 10268 10275 10286 10295 10303 10311 10318 10323 10331 10337 10343 10347 10351 10356 10359 10363 10367 10372 10378 10385 10393 10403 10413 10421 10429 10437 10445 10452 10458 10461 10465 10470 10474 10479 10483 10486
10205 10210 10217 10225 10231 10239 10246 10253 10259 10271 10280 10284 10293 10302 10308 10315 10322 10327 10331 10335 10341 10345 10349 10354 10359 10364 10371 10380 10389 10398 10407 10416 10423 10431 10436 10441 10446 10451 10456 10460 10464 10468 10471 10474
10202 10205 10212 10220 10225 10232 10239 10246 10255 10262 10270 10275 10284 10291 10298 10304 10311 10316 10320 10326 10331 10336 10341 10347 10352 10358 10367 10378 10387 10394 10406 10410 10417 10426 10428 10431 10436 10440 10445 10449 10453 10455 10460 10463
10194 10201 10207 10213 10218 10225 10232 10239 10245 10253 10261 10266 10274 10280 10288 10295 10301 10306 10312 10318 10323 10329 10334 10340 10346 10352 10359 10368 10377 10384 10393 10397 10405 10412 10413 10418 10421 10425 10430 10435 10438 10441 10445 10449
10192 10197 10202 10207 10213 10218 10224 10229 10236 10245 10252 10257 10265 10272 10278 10284 10291 10296 10302 10308 10314 10320 10325 10331 10337 10346 10352 10358 10364 10371 10379 10384 10392 10399 10401 10405 10409 10412 10416 10422 10426 10424 10427 10431
10189 10195 10201 10205 10209 10213 10218 10226 10233 10239 10245 10251 10258 10264 10269 10275 10281 10286 10292 10298 10304 10310 10315 10322 10326 10334 10340 10346 10354 10361 10365 10366 10373 10380 10387 10391 10394 10397 10400 10404 10408 10411 10412 10414
10186 10190 10195 10200 10204 10210 10217 10221 10226 10232 10238 10244 10250 10255 10260 10265 10271 10276 10282 10288 10293 10299 10304 10311 10317 10322 10326 10332 10336 10340 10347 10354 10360 10362 10365 10371 10377 10381 10385 10387 10390 10392 10393 10395